|
NORAD ID: 26769 Int'l Code: 2001-019D
Perigee: 7,024.1 km
Apogee: 35,953.0 km
Inclination: 16.6 °
Period: 771.3 minutes
Semi major axis: 27859 km
Launch date: May 15, 2001
Source: Commonwealth of Independent States (former USSR) (CIS)
Note: This is a ROCKET BODY
Two Line Element Set (TLE):
1 26769U 01019D 13145.05251309 -.00000057 00000-0 00000+0 0 6988
2 26769 016.5577 149.3533 5191932 146.5516 250.5978 01.86698963 82034
Source:
NASA's NSSDC Master Catalog entry for BLOCK DM R/B
|